N123SX KJFK-KBOS

Flight info

Callsign N123SX
Flight time 0h 52m
Altitude VFR/095
Route FF
Aircraft SF50/L-DOV/C

Departure

Time 2026-05-08 21:27
Airport John F. Kennedy International Airport (KJFK)

Arrival

Time 2026-05-08 22:20
Airport Boston Logan International Airport (KBOS)
Time Latitude Longitude Altitude Speed Heading
2026-05-08 21:14 40.64847 -73.80715 14 ft 0 kts 310°
2026-05-08 21:18 40.64844 -73.80739 14 ft 5 kts 218°
2026-05-08 21:18 40.64828 -73.80770 14 ft 0 kts 258°
2026-05-08 21:19 40.64829 -73.80789 14 ft 3 kts 306°
2026-05-08 21:19 40.64826 -73.80822 14 ft 7 kts 206°
2026-05-08 21:19 40.64805 -73.80838 14 ft 0 kts 209°
2026-05-08 21:22 40.64788 -73.80850 14 ft 7 kts 207°
2026-05-08 21:22 40.64729 -73.80893 15 ft 14 kts 214°
2026-05-08 21:22 40.64657 -73.80883 15 ft 10 kts 127°
2026-05-08 21:22 40.64609 -73.80777 15 ft 17 kts 122°
2026-05-08 21:23 40.64555 -73.80659 15 ft 13 kts 122°
2026-05-08 21:23 40.64497 -73.80531 14 ft 23 kts 121°
2026-05-08 21:23 40.64392 -73.80301 14 ft 33 kts 121°
2026-05-08 21:23 40.64295 -73.80087 14 ft 22 kts 123°
2026-05-08 21:24 40.64203 -73.79931 15 ft 20 kts 136°
2026-05-08 21:24 40.64110 -73.79783 15 ft 21 kts 122°
2026-05-08 21:24 40.64043 -73.79638 15 ft 7 kts 122°
2026-05-08 21:24 40.64001 -73.79545 15 ft 15 kts 123°
2026-05-08 21:25 40.63931 -73.79384 14 ft 20 kts 119°
2026-05-08 21:25 40.63857 -73.79219 14 ft 23 kts 121°
2026-05-08 21:25 40.63766 -73.79021 15 ft 28 kts 121°
2026-05-08 21:25 40.63663 -73.78799 16 ft 29 kts 120°
2026-05-08 21:26 40.63568 -73.78587 16 ft 25 kts 121°
2026-05-08 21:26 40.63510 -73.78458 16 ft 21 kts 121°
2026-05-08 21:26 40.63440 -73.78304 15 ft 18 kts 121°
2026-05-08 21:26 40.63350 -73.78242 16 ft 17 kts 206°
2026-05-08 21:27 40.63350 -73.78392 15 ft 34 kts 298°
2026-05-08 21:27 40.63618 -73.78980 57 ft 110 kts 302°
2026-05-08 21:27 40.63940 -73.80097 427 ft 157 kts 272°
2026-05-08 21:27 40.63353 -73.81530 762 ft 211 kts 223°
2026-05-08 21:28 40.62062 -73.81979 1021 ft 181 kts 173°
2026-05-08 21:28 40.60950 -73.81308 1259 ft 176 kts 155°
2026-05-08 21:28 40.59842 -73.80567 1506 ft 200 kts 158°
2026-05-08 21:28 40.58460 -73.79693 1791 ft 240 kts 158°
2026-05-08 21:29 40.56928 -73.78722 2065 ft 246 kts 158°
2026-05-08 21:29 40.55360 -73.77729 2327 ft 254 kts 158°
2026-05-08 21:29 40.53758 -73.76714 2581 ft 256 kts 157°
2026-05-08 21:29 40.52150 -73.75691 2838 ft 258 kts 157°
2026-05-08 21:30 40.50664 -73.74653 3080 ft 215 kts 144°
2026-05-08 21:30 40.49955 -73.72951 3291 ft 236 kts 100°
2026-05-08 21:30 40.50224 -73.70721 3535 ft 265 kts 61°
2026-05-08 21:30 40.51452 -73.68865 3795 ft 276 kts 37°
2026-05-08 21:31 40.52911 -73.67296 4060 ft 254 kts 37°
2026-05-08 21:31 40.54096 -73.65754 4303 ft 229 kts 44°
2026-05-08 21:31 40.55122 -73.64244 4552 ft 223 kts 43°
2026-05-08 21:31 40.56270 -73.62638 4817 ft 262 kts 42°
2026-05-08 21:32 40.57575 -73.60834 5084 ft 281 kts 43°
2026-05-08 21:32 40.58940 -73.58926 5345 ft 291 kts 43°
2026-05-08 21:32 40.60244 -73.57087 5607 ft 253 kts 43°
2026-05-08 21:32 40.61391 -73.55475 5789 ft 240 kts 41°
2026-05-08 21:33 40.62644 -73.53767 5928 ft 275 kts 41°
2026-05-08 21:33 40.63995 -73.51881 6072 ft 290 kts 43°
2026-05-08 21:33 40.65363 -73.49938 6215 ft 275 kts 43°
2026-05-08 21:33 40.66581 -73.48214 6335 ft 244 kts 41°
2026-05-08 21:34 40.67704 -73.46655 6444 ft 227 kts 41°
2026-05-08 21:34 40.68758 -73.45185 6559 ft 216 kts 41°
2026-05-08 21:34 40.69770 -73.43770 6677 ft 209 kts 40°
2026-05-08 21:34 40.70758 -73.42385 6793 ft 206 kts 40°
2026-05-08 21:35 40.71733 -73.41016 6923 ft 204 kts 40°
2026-05-08 21:35 40.72705 -73.39657 7046 ft 203 kts 40°
2026-05-08 21:35 40.73670 -73.38302 7173 ft 203 kts 40°
2026-05-08 21:35 40.74630 -73.36949 7295 ft 202 kts 39°
2026-05-08 21:36 40.75591 -73.35608 7420 ft 201 kts 39°
2026-05-08 21:36 40.76578 -73.34233 7542 ft 224 kts 39°
2026-05-08 21:36 40.77754 -73.32602 7715 ft 263 kts 42°
2026-05-08 21:36 40.79050 -73.30757 7849 ft 284 kts 43°
2026-05-08 21:37 40.80415 -73.28801 7988 ft 294 kts 42°
2026-05-08 21:37 40.81837 -73.26803 8122 ft 302 kts 41°
2026-05-08 21:37 40.83248 -73.24828 8253 ft 292 kts 41°
2026-05-08 21:37 40.84630 -73.22870 8376 ft 292 kts 41°
2026-05-08 21:38 40.85987 -73.20947 8442 ft 266 kts 41°
2026-05-08 21:38 40.87257 -73.19156 8432 ft 272 kts 41°
2026-05-08 21:38 40.88511 -73.17388 8443 ft 257 kts 41°
2026-05-08 21:38 40.89729 -73.15660 8489 ft 259 kts 41°
2026-05-08 21:39 40.90958 -73.13921 8546 ft 258 kts 41°
2026-05-08 21:39 40.92186 -73.12184 8646 ft 258 kts 41°
2026-05-08 21:39 40.93411 -73.10450 8749 ft 258 kts 40°
2026-05-08 21:39 40.94637 -73.08709 8863 ft 260 kts 41°
2026-05-08 21:40 40.95879 -73.06949 8972 ft 263 kts 41°
2026-05-08 21:40 40.97125 -73.05179 9076 ft 262 kts 41°
2026-05-08 21:40 40.98371 -73.03409 9182 ft 263 kts 41°
2026-05-08 21:41 41.00846 -72.99892 9391 ft 263 kts 41°
2026-05-08 21:41 41.02094 -72.98116 9444 ft 265 kts 41°
2026-05-08 21:41 41.03356 -72.96322 9445 ft 266 kts 41°
2026-05-08 21:41 41.04609 -72.94529 9450 ft 265 kts 40°
2026-05-08 21:42 41.05861 -72.92745 9446 ft 264 kts 40°
2026-05-08 21:42 41.07112 -72.90963 9446 ft 264 kts 40°
2026-05-08 21:42 41.08359 -72.89180 9445 ft 264 kts 40°
2026-05-08 21:42 41.09607 -72.87400 9445 ft 263 kts 40°
2026-05-08 21:43 41.10854 -72.85620 9445 ft 264 kts 40°
2026-05-08 21:43 41.12103 -72.83831 9449 ft 265 kts 40°
2026-05-08 21:43 41.13360 -72.82037 9452 ft 266 kts 40°
2026-05-08 21:43 41.14615 -72.80238 9453 ft 266 kts 40°
2026-05-08 21:44 41.15872 -72.78437 9449 ft 266 kts 40°
2026-05-08 21:44 41.17130 -72.76636 9448 ft 266 kts 40°
2026-05-08 21:44 41.18388 -72.74832 9449 ft 267 kts 40°
2026-05-08 21:44 41.19645 -72.73023 9449 ft 266 kts 40°
2026-05-08 21:45 41.20902 -72.71221 9445 ft 266 kts 40°
2026-05-08 21:45 41.22159 -72.69414 9444 ft 266 kts 41°
2026-05-08 21:45 41.23396 -72.67634 9444 ft 265 kts 40°
2026-05-08 21:45 41.24649 -72.65832 9443 ft 265 kts 40°
2026-05-08 21:46 41.25899 -72.64032 9436 ft 265 kts 40°
2026-05-08 21:46 41.27150 -72.62235 9435 ft 265 kts 40°
2026-05-08 21:46 41.28401 -72.60432 9446 ft 266 kts 40°
2026-05-08 21:46 41.29658 -72.58618 9441 ft 267 kts 40°
2026-05-08 21:47 41.30912 -72.56806 9444 ft 266 kts 40°
2026-05-08 21:47 41.32168 -72.54997 9438 ft 266 kts 40°
2026-05-08 21:47 41.33423 -72.53184 9442 ft 267 kts 40°
2026-05-08 21:47 41.34679 -72.51366 9440 ft 267 kts 40°
2026-05-08 21:48 41.35935 -72.49548 9440 ft 267 kts 40°
2026-05-08 21:48 41.37191 -72.47730 9441 ft 267 kts 40°
2026-05-08 21:48 41.38442 -72.45917 9438 ft 265 kts 40°
2026-05-08 21:48 41.39677 -72.44125 9441 ft 251 kts 40°
2026-05-08 21:49 41.40746 -72.42538 9430 ft 212 kts 39°
2026-05-08 21:49 41.41682 -72.41183 9423 ft 187 kts 36°
2026-05-08 21:49 41.42509 -72.39990 9424 ft 170 kts 35°
2026-05-08 21:49 41.43438 -72.38707 9449 ft 203 kts 36°
2026-05-08 21:50 41.44465 -72.37229 9444 ft 233 kts 39°
2026-05-08 21:50 41.45602 -72.35551 9445 ft 258 kts 40°
2026-05-08 21:50 41.46824 -72.33760 9440 ft 264 kts 40°
2026-05-08 21:50 41.48075 -72.31941 9435 ft 268 kts 40°
2026-05-08 21:51 41.49328 -72.30108 9424 ft 267 kts 41°
2026-05-08 21:51 41.50579 -72.28281 9424 ft 267 kts 40°
2026-05-08 21:51 41.51833 -72.26456 9425 ft 267 kts 40°
2026-05-08 21:51 41.53084 -72.24624 9422 ft 266 kts 40°
2026-05-08 21:52 41.54321 -72.22811 9424 ft 263 kts 39°
2026-05-08 21:52 41.55564 -72.21010 9423 ft 264 kts 39°
2026-05-08 21:52 41.56802 -72.19202 9421 ft 264 kts 40°
2026-05-08 21:52 41.58036 -72.17393 9426 ft 263 kts 39°
2026-05-08 21:53 41.59275 -72.15583 9425 ft 265 kts 40°
2026-05-08 21:53 41.60519 -72.13760 9424 ft 266 kts 40°
2026-05-08 21:53 41.61762 -72.11937 9428 ft 265 kts 39°
2026-05-08 21:53 41.63004 -72.10120 9423 ft 264 kts 39°
2026-05-08 21:54 41.64242 -72.08305 9429 ft 264 kts 39°
2026-05-08 21:54 41.65481 -72.06489 9429 ft 264 kts 40°
2026-05-08 21:54 41.66720 -72.04672 9430 ft 265 kts 39°
2026-05-08 21:54 41.67965 -72.02840 9428 ft 266 kts 40°
2026-05-08 21:55 41.69207 -72.01009 9429 ft 265 kts 40°
2026-05-08 21:55 41.70446 -71.99186 9427 ft 265 kts 40°
2026-05-08 21:55 41.71669 -71.97388 9423 ft 264 kts 40°
2026-05-08 21:56 41.74138 -71.93751 9422 ft 264 kts 40°
2026-05-08 21:56 41.75373 -71.91924 9421 ft 265 kts 39°
2026-05-08 21:56 41.76610 -71.90099 9426 ft 264 kts 40°
2026-05-08 21:56 41.77836 -71.88288 9434 ft 261 kts 39°
2026-05-08 21:57 41.78664 -71.87066 9422 ft 263 kts 39°
2026-05-08 21:57 41.79895 -71.85253 9321 ft 266 kts 39°
2026-05-08 21:57 41.81120 -71.83447 8931 ft 261 kts 40°
2026-05-08 21:57 41.82328 -71.81660 8530 ft 257 kts 40°
2026-05-08 21:58 41.83512 -71.79888 8135 ft 253 kts 41°
2026-05-08 21:58 41.84690 -71.78141 7748 ft 252 kts 41°
2026-05-08 21:58 41.85863 -71.76410 7362 ft 250 kts 41°
2026-05-08 21:58 41.87023 -71.74688 6982 ft 248 kts 42°
2026-05-08 21:59 41.88174 -71.72978 6610 ft 246 kts 42°
2026-05-08 21:59 41.89309 -71.71291 6233 ft 242 kts 43°
2026-05-08 21:59 41.90432 -71.69622 5834 ft 240 kts 43°
2026-05-08 21:59 41.91548 -71.67967 5446 ft 238 kts 44°
2026-05-08 22:00 41.92653 -71.66319 5056 ft 236 kts 44°
2026-05-08 22:00 41.93753 -71.64680 4688 ft 236 kts 44°
2026-05-08 22:00 41.94851 -71.63046 4429 ft 231 kts 44°
2026-05-08 22:00 41.95925 -71.61448 4424 ft 234 kts 44°
2026-05-08 22:01 41.97028 -71.59805 4433 ft 237 kts 44°
2026-05-08 22:01 41.98121 -71.58171 4430 ft 234 kts 45°
2026-05-08 22:01 41.99207 -71.56546 4431 ft 234 kts 44°
2026-05-08 22:01 42.00300 -71.54907 4431 ft 236 kts 44°
2026-05-08 22:02 42.01399 -71.53278 4429 ft 235 kts 44°
2026-05-08 22:02 42.02499 -71.51642 4429 ft 236 kts 44°
2026-05-08 22:02 42.03593 -71.49997 4430 ft 236 kts 45°
2026-05-08 22:02 42.04673 -71.48373 4427 ft 236 kts 44°
2026-05-08 22:03 42.05773 -71.46732 4429 ft 237 kts 45°
2026-05-08 22:03 42.06870 -71.45087 4430 ft 235 kts 45°
2026-05-08 22:03 42.07962 -71.43445 4431 ft 235 kts 44°
2026-05-08 22:03 42.09056 -71.41808 4431 ft 236 kts 45°
2026-05-08 22:04 42.10151 -71.40174 4430 ft 235 kts 44°
2026-05-08 22:04 42.11245 -71.38533 4431 ft 236 kts 44°
2026-05-08 22:04 42.12338 -71.36876 4428 ft 237 kts 44°
2026-05-08 22:04 42.13438 -71.35221 4430 ft 237 kts 44°
2026-05-08 22:05 42.14536 -71.33570 4430 ft 236 kts 44°
2026-05-08 22:05 42.15628 -71.31925 4430 ft 235 kts 44°
2026-05-08 22:05 42.16717 -71.30286 4428 ft 234 kts 44°
2026-05-08 22:05 42.17801 -71.28651 4417 ft 234 kts 44°
2026-05-08 22:06 42.18891 -71.27008 4411 ft 236 kts 44°
2026-05-08 22:06 42.19987 -71.25355 4410 ft 236 kts 44°
2026-05-08 22:06 42.21072 -71.23715 4412 ft 235 kts 44°
2026-05-08 22:06 42.22168 -71.22063 4414 ft 235 kts 44°
2026-05-08 22:07 42.23251 -71.20419 4412 ft 236 kts 44°
2026-05-08 22:07 42.24343 -71.18770 4413 ft 235 kts 44°
2026-05-08 22:07 42.25415 -71.17148 4414 ft 235 kts 44°
2026-05-08 22:07 42.26505 -71.15506 4353 ft 237 kts 44°
2026-05-08 22:08 42.27590 -71.13868 4096 ft 225 kts 44°
2026-05-08 22:08 42.28598 -71.12323 3830 ft 206 kts 44°
2026-05-08 22:08 42.29496 -71.10956 3595 ft 189 kts 44°
2026-05-08 22:08 42.30337 -71.09649 3372 ft 181 kts 44°
2026-05-08 22:09 42.31112 -71.08388 3274 ft 167 kts 46°
2026-05-08 22:09 42.31831 -71.07137 2969 ft 168 kts 48°
2026-05-08 22:09 42.32325 -71.05815 2997 ft 150 kts 70°
2026-05-08 22:09 42.32516 -71.04365 2796 ft 165 kts 80°
2026-05-08 22:10 42.32657 -71.02739 2882 ft 176 kts 81°
2026-05-08 22:10 42.32791 -71.01128 2801 ft 174 kts 83°
2026-05-08 22:10 42.32867 -70.99450 2433 ft 177 kts 87°
2026-05-08 22:10 42.32889 -70.97801 2018 ft 178 kts 88°
2026-05-08 22:11 42.32922 -70.96205 1834 ft 166 kts 84°
2026-05-08 22:11 42.33084 -70.94667 1514 ft 162 kts 67°
2026-05-08 22:11 42.33847 -70.93603 953 ft 157 kts 17°
2026-05-08 22:11 42.34830 -70.93155 796 ft 143 kts
2026-05-08 22:12 42.35746 -70.92528 967 ft 174 kts 26°
2026-05-08 22:12 42.36806 -70.91548 1055 ft 181 kts 30°
2026-05-08 22:12 42.37813 -70.90625 1041 ft 173 kts 27°
2026-05-08 22:12 42.38879 -70.89659 1192 ft 192 kts 25°
2026-05-08 22:13 42.40041 -70.88643 1302 ft 195 kts 28°
2026-05-08 22:13 42.41096 -70.87696 1446 ft 173 kts 27°
2026-05-08 22:13 42.42063 -70.86807 1483 ft 163 kts 29°
2026-05-08 22:13 42.42961 -70.85951 1541 ft 159 kts 30°
2026-05-08 22:14 42.43868 -70.85045 1332 ft 167 kts 26°
2026-05-08 22:14 42.44956 -70.84603 1129 ft 165 kts 356°
2026-05-08 22:14 42.45983 -70.85182 865 ft 158 kts 307°
2026-05-08 22:14 42.46084 -70.86418 744 ft 133 kts 242°
2026-05-08 22:15 42.45301 -70.87085 566 ft 129 kts 208°
2026-05-08 22:15 42.44565 -70.87497 716 ft 113 kts 210°
2026-05-08 22:15 42.43916 -70.87999 834 ft 107 kts 218°
2026-05-08 22:15 42.43310 -70.88642 836 ft 111 kts 225°
2026-05-08 22:16 42.42717 -70.89316 925 ft 110 kts 226°
2026-05-08 22:16 42.42027 -70.89826 901 ft 121 kts 209°
2026-05-08 22:16 42.41215 -70.90197 888 ft 125 kts 202°
2026-05-08 22:16 42.40393 -70.90502 955 ft 121 kts 204°
2026-05-08 22:17 42.39608 -70.90842 1049 ft 119 kts 207°
2026-05-08 22:17 42.38988 -70.91504 1006 ft 115 kts 243°
2026-05-08 22:17 42.38431 -70.92353 948 ft 119 kts 232°
2026-05-08 22:17 42.37841 -70.93141 905 ft 114 kts 233°
2026-05-08 22:18 42.37351 -70.93861 847 ft 96 kts 237°
2026-05-08 22:18 42.37016 -70.94634 726 ft 97 kts 246°
2026-05-08 22:18 42.36713 -70.95412 634 ft 91 kts 247°
2026-05-08 22:18 42.36481 -70.96261 491 ft 98 kts 254°
2026-05-08 22:19 42.36302 -70.97156 316 ft 94 kts 253°
2026-05-08 22:19 42.36152 -70.97980 202 ft 88 kts 255°
2026-05-08 22:19 42.36012 -70.98794 58 ft 87 kts 256°
2026-05-08 22:19 42.35894 -70.99496 20 ft 61 kts 256°
2026-05-08 22:20 42.35851 -70.99732 24 ft 7 kts 255°
2026-05-08 22:20 42.35842 -70.99795 24 ft 12 kts 258°
2026-05-08 22:20 42.35824 -70.99892 25 ft 13 kts 255°
2026-05-08 22:20 42.35802 -71.00008 28 ft 18 kts 255°
2026-05-08 22:21 42.35722 -71.00458 19 ft 25 kts 257°
2026-05-08 22:21 42.35683 -71.00697 16 ft 17 kts 262°
2026-05-08 22:21 42.35666 -71.00813 17 ft 10 kts 255°
2026-05-08 22:21 42.35634 -71.01044 18 ft 12 kts 274°
2026-05-08 22:22 42.35672 -71.01177 19 ft 11 kts 304°
2026-05-08 22:22 42.35688 -71.01204 18 ft 0 kts 308°
2026-05-08 22:24 42.35712 -71.01246 19 ft 9 kts 306°
2026-05-08 22:24 42.35747 -71.01328 21 ft 7 kts 287°
2026-05-08 22:25 42.35767 -71.01400 24 ft 13 kts 287°
2026-05-08 22:25 42.35792 -71.01498 27 ft 10 kts 292°
2026-05-08 22:25 42.35824 -71.01628 26 ft 13 kts 303°
2026-05-08 22:25 42.35884 -71.01649 25 ft 8 kts 20°
2026-05-08 22:26 42.36024 -71.01581 22 ft 12 kts 18°
2026-05-08 22:26 42.36175 -71.01508 21 ft 12 kts 21°
2026-05-08 22:26 42.36310 -71.01443 16 ft 8 kts 20°
2026-05-08 22:26 42.36370 -71.01413 17 ft 0 kts 20°
2026-05-08 22:27 42.36375 -71.01411 17 ft 3 kts 18°
2026-05-08 22:27 42.36487 -71.01354 18 ft 6 kts 21°
2026-05-08 22:27 42.36594 -71.01289 19 ft 12 kts 24°
2026-05-08 22:27 42.36717 -71.01294 19 ft 11 kts 318°
2026-05-08 22:28 42.36844 -71.01360 20 ft 11 kts 330°
2026-05-08 22:28 42.36951 -71.01488 20 ft 12 kts 313°
2026-05-08 22:28 42.37017 -71.01576 22 ft 0 kts 316°
2026-05-08 22:28 42.37111 -71.01682 24 ft 10 kts 349°
2026-05-08 22:29 42.37206 -71.01707 22 ft 4 kts 308°
2026-05-08 22:29 42.37273 -71.01792 23 ft 8 kts 314°
2026-05-08 22:29 42.37307 -71.01838 23 ft 0 kts 314°
2026-05-08 22:29 42.37382 -71.01941 20 ft 12 kts 314°
2026-05-08 22:30 42.37475 -71.02060 20 ft 12 kts 315°
2026-05-08 22:30 42.37568 -71.02178 18 ft 9 kts 320°
2026-05-08 22:30 42.37660 -71.02320 18 ft 6 kts 290°
2026-05-08 22:30 42.37665 -71.02444 18 ft 6 kts 279°
2026-05-08 22:31 42.37666 -71.02447 18 ft 0 kts 288°